Lid_Strength_Index
9 7 5 6 2 2 2 1 0 1 0 0 1 1 1 1 2 2 2 3 4 5
10 11 10 9 9 7 7 7 7 7 7 6 6 5 5 7 9 8 9 9 9 11
12 12 12 11 11 11 10 10 10 10 10 11 10 9 10 11 11 12 12 12 12 12
12 12 12 12 13 12 12 12 12 12 12 12 12 12 12 13 13 13 14 14 14 14
13 13 13 14 13 13 13 13 13 13 13 13 13 13 14 14 14 15 16 16 16 16
14 14 14 14 14 14 14 14 14 14 15 15 15 15 15 15 16 16 17 17 17 17
15 15 15 15 15 15 14 15 15 15 15 15 15 15 16 16 16 17 17 17 18 17
15 15 15 16 16 16 16 16 15 16 16 15 16 16 16 16 16 17 17 17 17 16
16 17 17 16 16 16 16 16 16 16 16 16 16 15 16 16 17 17 17 18 18 17
15 16 17 17 16 17 17 17 17 16 16 16 16 16 16 17 18 19 19 19 19 19
16 16 16 16 16 16 17 17 17 17 16 17 17 16 17 17 18 18 19 19 18 18
15 16 16 17 17 16 16 17 17 16 17 17 16 16 16 17 18 18 18 17 16 16
16 15 16 16 17 17 17 18 17 17 17 16 16 15 15 16 17 17 17 16 16 16
16 16 16 16 17 17 18 18 18 18 17 17 16 15 15 15 16 16 16 16 16 15